Time,TemperatureF,DewpointF,PressureIn,WindDirection,WindDirectionDegrees,WindSpeedMPH,WindSpeedGustMPH,Humidity,HourlyPrecipIn,Conditions,Clouds,dailyrainin,SoftwareType,DateUTC
2013-11-30 00:02:00,4.4,1.4,30.86,SE,141,0.0,0.0,87,0.00,,BKN001,0.00,VWS V14.00,2013-11-30 07:02:00,
2013-11-30 00:07:00,3.9,0.6,30.86,SE,141,0.0,0.0,86,0.00,,BKN001,0.00,VWS V14.00,2013-11-30 07:07:00,
2013-11-30 00:11:00,3.6,0.6,30.86,SE,125,1.0,2.0,87,0.00,,BKN001,0.00,VWS V14.00,2013-11-30 07:11:00,
2013-11-30 00:16:00,3.7,0.7,30.87,SW,218,0.0,2.0,87,0.00,,BKN001,0.00,VWS V14.00,2013-11-30 07:16:00,
2013-11-30 00:21:00,3.5,0.5,30.86,South,173,1.0,2.0,87,0.00,,BKN001,0.00,VWS V14.00,2013-11-30 07:21:00,
2013-11-30 00:26:00,4.2,1.4,30.86,SSE,161,2.0,2.0,88,0.00,,BKN001,0.00,VWS V14.00,2013-11-30 07:26:00,
2013-11-30 00:31:00,5.0,2.2,30.86,SSE,163,2.0,2.0,88,0.00,,BKN001,0.00,VWS V14.00,2013-11-30 07:31:00,
2013-11-30 00:36:00,4.9,1.9,30.86,SSE,162,1.0,2.0,87,0.00,,BKN001,0.00,VWS V14.00,2013-11-30 07:36:00,
2013-11-30 00:41:00,4.5,1.5,30.86,SSE,159,1.0,2.0,87,0.00,,BKN001,0.00,VWS V14.00,2013-11-30 07:41:00,
2013-11-30 00:46:00,3.6,0.4,30.86,SW,215,1.0,3.0,86,0.00,,BKN001,0.00,VWS V14.00,2013-11-30 07:46:00,
2013-11-30 00:51:00,3.1,-0.1,30.86,SE,145,2.0,3.0,86,0.00,,BKN001,0.00,VWS V14.00,2013-11-30 07:51:00,
2013-11-30 00:56:00,3.2,0.2,30.86,SSE,148,3.0,3.0,87,0.00,,BKN001,0.00,VWS V14.00,2013-11-30 07:56:00,
2013-11-30 01:01:00,3.1,-0.1,30.86,South,191,2.0,2.0,86,0.00,,BKN001,0.00,VWS V14.00,2013-11-30 08:01:00,
2013-11-30 01:06:00,2.4,-0.8,30.86,SSW,210,2.0,2.0,86,0.00,,BKN001,0.00,VWS V14.00,2013-11-30 08:06:00,
2013-11-30 01:11:00,3.1,0.4,30.86,SW,236,3.0,4.0,88,0.00,,BKN001,0.00,VWS V14.00,2013-11-30 08:11:00,
2013-11-30 01:16:00,3.0,0.0,30.86,SW,218,3.0,4.0,87,0.00,,BKN001,0.00,VWS V14.00,2013-11-30 08:16:00,
2013-11-30 01:21:00,2.9,-0.1,30.86,SW,232,3.0,5.0,87,0.00,,BKN001,0.00,VWS V14.00,2013-11-30 08:21:00,
2013-11-30 01:26:00,2.7,-0.3,30.86,SW,215,5.0,6.0,87,0.00,,BKN001,0.00,VWS V14.00,2013-11-30 08:26:00,
2013-11-30 01:31:00,2.1,-1.1,30.86,SW,221,4.0,6.0,86,0.00,,BKN001,0.00,VWS V14.00,2013-11-30 08:31:00,
2013-11-30 01:36:00,1.9,-1.1,30.86,WSW,252,3.0,6.0,87,0.00,,BKN001,0.00,VWS V14.00,2013-11-30 08:36:00,
2013-11-30 01:41:00,2.4,-0.6,30.86,WSW,243,3.0,6.0,87,0.00,,BKN001,0.00,VWS V14.00,2013-11-30 08:41:00,
2013-11-30 01:46:00,2.5,-0.5,30.87,WSW,250,1.0,6.0,87,0.00,,BKN001,0.00,VWS V14.00,2013-11-30 08:46:00,
2013-11-30 01:51:00,2.5,-0.5,30.86,SW,236,2.0,6.0,87,0.00,,BKN001,0.00,VWS V14.00,2013-11-30 08:51:00,
2013-11-30 01:56:00,2.6,-0.4,30.87,WSW,253,0.0,6.0,87,0.00,,BKN001,0.00,VWS V14.00,2013-11-30 08:56:00,
2013-11-30 02:01:00,2.0,-1.2,30.87,East,79,0.0,0.0,86,0.00,,BKN001,0.00,VWS V14.00,2013-11-30 09:01:00,
2013-11-30 02:06:00,1.6,-1.6,30.87,East,79,0.0,0.0,86,0.00,,BKN001,0.00,VWS V14.00,2013-11-30 09:06:00,
2013-11-30 02:11:00,1.3,-1.9,30.88,NE,47,0.0,1.0,86,0.00,,BKN001,0.00,VWS V14.00,2013-11-30 09:11:00,
2013-11-30 02:16:00,0.9,-2.3,30.88,NNE,12,0.0,1.0,86,0.00,,BKN001,0.00,VWS V14.00,2013-11-30 09:16:00,
2013-11-30 02:21:00,1.0,-2.2,30.88,NNE,12,0.0,1.0,86,0.00,,BKN001,0.00,VWS V14.00,2013-11-30 09:21:00,
2013-11-30 02:26:00,1.2,-2.0,30.88,South,173,1.0,1.0,86,0.00,,BKN001,0.00,VWS V14.00,2013-11-30 09:26:00,
2013-11-30 02:31:00,1.0,-2.2,30.88,SSE,152,0.0,0.0,86,0.00,,BKN001,0.00,VWS V14.00,2013-11-30 09:31:00,
2013-11-30 02:36:00,1.0,-2.2,30.88,SSE,155,2.0,3.0,86,0.00,,BKN001,0.00,VWS V14.00,2013-11-30 09:36:00,
2013-11-30 02:41:00,1.2,-1.8,30.88,SE,132,3.0,4.0,87,0.00,,BKN001,0.00,VWS V14.00,2013-11-30 09:41:00,
2013-11-30 02:46:00,1.6,-1.4,30.88,SSE,153,2.0,4.0,87,0.00,,BKN001,0.00,VWS V14.00,2013-11-30 09:46:00,
2013-11-30 02:51:00,1.5,-1.7,30.88,SSW,210,3.0,4.0,86,0.00,,BKN001,0.00,VWS V14.00,2013-11-30 09:51:00,
2013-11-30 02:56:00,2.1,-0.9,30.88,SSW,208,3.0,4.0,87,0.00,,BKN001,0.00,VWS V14.00,2013-11-30 09:56:00,
2013-11-30 03:01:00,2.3,-0.7,30.88,SSW,200,1.0,1.0,87,0.00,,BKN001,0.00,VWS V14.00,2013-11-30 10:01:00,
2013-11-30 03:06:00,1.8,-1.4,30.88,SSE,164,2.0,2.0,86,0.00,,BKN001,0.00,VWS V14.00,2013-11-30 10:06:00,
2013-11-30 03:11:00,1.2,-2.0,30.88,SW,226,1.0,2.0,86,0.00,,BKN001,0.00,VWS V14.00,2013-11-30 10:11:00,
2013-11-30 03:16:00,0.5,-2.9,30.88,SE,146,2.0,2.0,85,0.00,,BKN001,0.00,VWS V14.00,2013-11-30 10:16:00,
2013-11-30 03:21:00,1.2,-1.8,30.88,SSE,158,3.0,3.0,87,0.00,,BKN001,0.00,VWS V14.00,2013-11-30 10:21:00,
2013-11-30 03:26:00,1.2,-2.0,30.88,South,179,4.0,4.0,86,0.00,,BKN001,0.00,VWS V14.00,2013-11-30 10:26:00,
2013-11-30 03:31:00,1.1,-2.1,30.88,SSE,158,2.0,3.0,86,0.00,,BKN001,0.00,VWS V14.00,2013-11-30 10:31:00,
2013-11-30 03:36:00,1.3,-1.9,30.88,SSW,197,2.0,3.0,86,0.00,,BKN001,0.00,VWS V14.00,2013-11-30 10:36:00,
2013-11-30 03:41:00,1.9,-1.1,30.88,South,190,2.0,3.0,87,0.00,,BKN001,0.00,VWS V14.00,2013-11-30 10:41:00,
2013-11-30 03:46:00,2.1,-0.9,30.88,SW,221,3.0,3.0,87,0.00,,BKN001,0.00,VWS V14.00,2013-11-30 10:46:00,
2013-11-30 03:51:00,2.0,-1.2,30.88,SSW,203,1.0,4.0,86,0.00,,BKN001,0.00,VWS V14.00,2013-11-30 10:51:00,
2013-11-30 03:56:00,0.8,-2.6,30.88,ESE,112,0.0,4.0,85,0.00,,BKN001,0.00,VWS V14.00,2013-11-30 10:56:00,
2013-11-30 04:01:00,-0.1,-3.5,30.89,NE,43,0.0,2.0,85,0.00,,BKN001,0.00,VWS V14.00,2013-11-30 11:01:00,
2013-11-30 04:06:00,-0.3,-3.7,30.89,NE,40,0.0,2.0,85,0.00,,BKN001,0.00,VWS V14.00,2013-11-30 11:06:00,
2013-11-30 04:11:00,0.3,-2.9,30.89,East,80,0.0,2.0,86,0.00,,BKN001,0.00,VWS V14.00,2013-11-30 11:11:00,
2013-11-30 04:16:00,0.7,-2.5,30.89,WSW,241,0.0,2.0,86,0.00,,BKN001,0.00,VWS V14.00,2013-11-30 11:16:00,
2013-11-30 04:21:00,0.2,-3.0,30.89,South,169,0.0,2.0,86,0.00,,BKN001,0.00,VWS V14.00,2013-11-30 11:21:00,
2013-11-30 04:26:00,-0.1,-3.3,30.89,SSW,203,0.0,2.0,86,0.00,,BKN001,0.00,VWS V14.00,2013-11-30 11:26:00,
2013-11-30 04:31:00,-0.2,-3.4,30.89,South,188,0.0,0.0,86,0.00,,BKN001,0.00,VWS V14.00,2013-11-30 11:31:00,
2013-11-30 04:36:00,0.4,-2.5,30.89,South,191,1.0,1.0,87,0.00,,BKN001,0.00,VWS V14.00,2013-11-30 11:36:00,
2013-11-30 04:41:00,0.3,-2.9,30.89,SSW,212,1.0,1.0,86,0.00,,BKN001,0.00,VWS V14.00,2013-11-30 11:41:00,
2013-11-30 04:46:00,-0.3,-3.7,30.90,SSE,167,0.0,2.0,85,0.00,,BKN001,0.00,VWS V14.00,2013-11-30 11:46:00,
2013-11-30 04:51:00,-0.7,-4.1,30.90,SE,145,0.0,2.0,85,0.00,,BKN001,0.00,VWS V14.00,2013-11-30 11:51:00,
2013-11-30 04:56:00,-1.1,-4.5,30.90,SE,136,2.0,2.0,85,0.00,,BKN001,0.00,VWS V14.00,2013-11-30 11:56:00,
2013-11-30 05:01:00,-0.1,-3.2,30.90,SE,143,3.0,3.0,86,0.00,,BKN001,0.00,VWS V14.00,2013-11-30 12:01:00,
2013-11-30 05:06:00,0.5,-2.7,30.90,SSE,163,0.0,3.0,86,0.00,,BKN001,0.00,VWS V14.00,2013-11-30 12:06:00,
2013-11-30 05:11:00,-1.8,-5.7,30.90,SW,235,0.0,3.0,83,0.00,,BKN001,0.00,VWS V14.00,2013-11-30 12:11:00,
2013-11-30 05:16:00,-2.3,-5.7,30.90,South,175,0.0,3.0,85,0.00,,BKN001,0.00,VWS V14.00,2013-11-30 12:16:00,
2013-11-30 05:21:00,-2.7,-6.3,30.90,SW,231,0.0,3.0,84,0.00,,BKN001,0.00,VWS V14.00,2013-11-30 12:21:00,
2013-11-30 05:26:00,-3.4,-7.0,30.90,SW,221,0.0,3.0,84,0.00,,BKN001,0.00,VWS V14.00,2013-11-30 12:26:00,
2013-11-30 05:31:00,-3.9,-7.5,30.90,SW,221,0.0,0.0,84,0.00,,BKN001,0.00,VWS V14.00,2013-11-30 12:31:00,
2013-11-30 05:36:00,-4.4,-8.0,30.90,SSW,205,2.0,2.0,84,0.00,,BKN001,0.00,VWS V14.00,2013-11-30 12:36:00,
2013-11-30 05:41:00,-4.1,-7.5,30.90,SSE,148,3.0,3.0,85,0.00,,BKN001,0.00,VWS V14.00,2013-11-30 12:41:00,
2013-11-30 05:46:00,-2.2,-5.3,30.90,South,177,3.0,4.0,86,0.00,,BKN001,0.00,VWS V14.00,2013-11-30 12:46:00,
2013-11-30 05:51:00,-1.0,-4.2,30.90,SSW,195,2.0,4.0,86,0.00,,BKN001,0.00,VWS V14.00,2013-11-30 12:51:00,
2013-11-30 05:56:00,-1.5,-4.9,30.91,SE,131,3.0,4.0,85,0.00,,BKN001,0.00,VWS V14.00,2013-11-30 12:56:00,
2013-11-30 06:01:00,-1.4,-4.6,30.90,South,169,2.0,4.0,86,0.00,,BKN001,0.00,VWS V14.00,2013-11-30 13:01:00,
2013-11-30 06:06:00,-1.2,-4.6,30.91,SW,236,1.0,4.0,85,0.00,,BKN001,0.00,VWS V14.00,2013-11-30 13:06:00,
2013-11-30 06:11:00,-1.9,-5.5,30.91,NE,36,0.0,4.0,84,0.00,,BKN001,0.00,VWS V14.00,2013-11-30 13:11:00,
2013-11-30 06:16:00,-2.6,-6.2,30.91,NE,35,0.0,4.0,84,0.00,,BKN001,0.00,VWS V14.00,2013-11-30 13:16:00,
2013-11-30 06:21:00,-2.4,-5.8,30.91,WSW,256,0.0,4.0,85,0.00,,BKN001,0.00,VWS V14.00,2013-11-30 13:21:00,
2013-11-30 06:26:00,-2.8,-6.2,30.92,West,272,0.0,4.0,85,0.00,,BKN001,0.00,VWS V14.00,2013-11-30 13:26:00,
2013-11-30 06:31:00,-3.5,-7.1,30.91,West,270,0.0,0.0,84,0.00,,BKN001,0.00,VWS V14.00,2013-11-30 13:31:00,
2013-11-30 06:36:00,-3.8,-7.4,30.92,SSW,212,1.0,1.0,84,0.00,,BKN001,0.00,VWS V14.00,2013-11-30 13:36:00,
2013-11-30 06:41:00,-3.8,-7.4,30.91,SSW,194,0.0,1.0,84,0.00,,BKN001,0.00,VWS V14.00,2013-11-30 13:41:00,
2013-11-30 06:46:00,-4.1,-7.7,30.92,SE,134,1.0,1.0,84,0.00,,BKN001,0.00,VWS V14.00,2013-11-30 13:46:00,
2013-11-30 06:51:00,-3.9,-7.3,30.92,SSE,148,1.0,2.0,85,0.00,,BKN001,0.00,VWS V14.00,2013-11-30 13:51:00,
2013-11-30 06:56:00,-3.9,-7.5,30.92,SSW,212,1.0,2.0,84,0.00,,BKN001,0.00,VWS V14.00,2013-11-30 13:56:00,
2013-11-30 07:01:00,-4.1,-7.7,30.92,SSW,210,0.0,2.0,84,0.00,,BKN001,0.00,VWS V14.00,2013-11-30 14:01:00,
2013-11-30 07:06:00,-4.1,-7.7,30.92,South,169,1.0,2.0,84,0.00,,BKN001,0.00,VWS V14.00,2013-11-30 14:06:00,
2013-11-30 07:11:00,-4.1,-7.7,30.92,South,176,1.0,2.0,84,0.00,,BKN001,0.00,VWS V14.00,2013-11-30 14:11:00,
2013-11-30 07:16:00,-3.8,-7.2,30.92,SW,218,1.0,2.0,85,0.00,,BKN001,0.00,VWS V14.00,2013-11-30 14:16:00,
2013-11-30 07:21:00,-4.2,-7.8,30.92,WSW,252,1.0,2.0,84,0.00,,BKN001,0.00,VWS V14.00,2013-11-30 14:21:00,
2013-11-30 07:26:00,-4.8,-8.4,30.92,SSE,153,0.0,2.0,84,0.00,,BKN001,0.00,VWS V14.00,2013-11-30 14:26:00,
2013-11-30 07:31:00,-5.3,-9.1,30.93,SSE,152,0.0,0.0,83,0.00,,BKN001,0.00,VWS V14.00,2013-11-30 14:31:00,
2013-11-30 07:36:00,-5.2,-8.8,30.93,SSE,166,2.0,2.0,84,0.00,,BKN001,0.00,VWS V14.00,2013-11-30 14:36:00,
2013-11-30 07:41:00,-4.3,-7.7,30.93,SSW,207,1.0,3.0,85,0.00,,BKN001,0.00,VWS V14.00,2013-11-30 14:41:00,
2013-11-30 07:46:00,-3.9,-7.3,30.93,SW,232,2.0,3.0,85,0.00,,BKN001,0.00,VWS V14.00,2013-11-30 14:46:00,
2013-11-30 07:51:00,-3.4,-6.8,30.93,SW,221,1.0,3.0,85,0.00,,BKN001,0.00,VWS V14.00,2013-11-30 14:51:00,
2013-11-30 07:56:00,-3.6,-7.0,30.93,SW,222,2.0,3.0,85,0.00,,BKN001,0.00,VWS V14.00,2013-11-30 14:56:00,
2013-11-30 08:01:00,-3.4,-6.8,30.93,SSW,212,2.0,3.0,85,0.00,,BKN001,0.00,VWS V14.00,2013-11-30 15:01:00,
2013-11-30 08:06:00,-3.8,-7.4,30.94,SW,218,0.0,3.0,84,0.00,,BKN001,0.00,VWS V14.00,2013-11-30 15:06:00,
2013-11-30 08:11:00,-3.8,-7.4,30.94,SW,225,0.0,3.0,84,0.00,,BKN001,0.00,VWS V14.00,2013-11-30 15:11:00,
2013-11-30 08:16:00,-3.6,-7.0,30.94,SSE,158,0.0,3.0,85,0.00,,BKN001,0.00,VWS V14.00,2013-11-30 15:16:00,
2013-11-30 08:21:00,-4.0,-7.6,30.95,SW,222,0.0,3.0,84,0.00,,BKN001,0.00,VWS V14.00,2013-11-30 15:21:00,
2013-11-30 08:26:00,-4.5,-8.1,30.95,NE,39,1.0,3.0,84,0.00,,BKN001,0.00,VWS V14.00,2013-11-30 15:26:00,
2013-11-30 08:31:00,-4.5,-8.1,30.95,NE,38,0.0,0.0,84,0.00,,BKN001,0.00,VWS V14.00,2013-11-30 15:31:00,
2013-11-30 08:36:00,-4.2,-7.8,30.95,ENE,65,0.0,0.0,84,0.00,,BKN001,0.00,VWS V14.00,2013-11-30 15:36:00,
2013-11-30 08:41:00,-3.8,-7.2,30.95,ENE,63,0.0,0.0,85,0.00,,BKN001,0.00,VWS V14.00,2013-11-30 15:41:00,
2013-11-30 08:46:00,-3.2,-6.6,30.95,ENE,65,0.0,0.0,85,0.00,,BKN001,0.00,VWS V14.00,2013-11-30 15:46:00,
2013-11-30 08:51:00,-2.4,-5.8,30.95,ENE,65,0.0,1.0,85,0.00,,BKN001,0.00,VWS V14.00,2013-11-30 15:51:00,
2013-11-30 08:56:00,-2.0,-5.4,30.95,ENE,67,0.0,1.0,85,0.00,,BKN001,0.00,VWS V14.00,2013-11-30 15:56:00,
2013-11-30 09:01:00,-0.4,-3.6,30.95,ENE,65,0.0,1.0,86,0.00,,BKN001,0.00,VWS V14.00,2013-11-30 16:01:00,
2013-11-30 09:06:00,-0.4,-3.6,30.95,ENE,65,0.0,1.0,86,0.00,,BKN001,0.00,VWS V14.00,2013-11-30 16:06:00,
2013-11-30 09:11:00,5.0,2.0,30.93,ESE,111,0.0,1.0,87,0.00,,BKN001,0.00,VWS V14.00,2013-11-30 16:11:00,
2013-11-30 09:16:00,5.0,1.7,30.93,ESE,112,0.0,1.0,86,0.00,,BKN001,0.00,VWS V14.00,2013-11-30 16:16:00,
2013-11-30 09:21:00,5.0,1.7,30.93,SE,129,1.0,2.0,86,0.00,,BKN001,0.00,VWS V14.00,2013-11-30 16:21:00,
2013-11-30 09:26:00,6.1,3.1,30.92,SE,142,0.0,2.0,87,0.00,,BKN001,0.00,VWS V14.00,2013-11-30 16:26:00,
2013-11-30 09:31:00,6.6,3.6,30.92,ESE,120,2.0,2.0,87,0.00,,BKN001,0.00,VWS V14.00,2013-11-30 16:31:00,
2013-11-30 09:36:00,5.4,1.9,30.92,ESE,117,1.0,2.0,85,0.00,,BKN001,0.00,VWS V14.00,2013-11-30 16:36:00,
2013-11-30 09:41:00,5.7,2.4,30.92,SE,134,1.0,2.0,86,0.00,,BKN001,0.00,VWS V14.00,2013-11-30 16:41:00,
2013-11-30 09:46:00,7.4,4.6,30.91,SSE,158,0.0,2.0,88,0.00,,BKN001,0.00,VWS V14.00,2013-11-30 16:46:00,
2013-11-30 09:51:00,10.6,8.2,30.90,SSE,158,0.0,2.0,90,0.00,,BKN001,0.00,VWS V14.00,2013-11-30 16:51:00,
2013-11-30 09:56:00,13.8,11.7,30.90,ESE,117,0.0,2.0,91,0.00,,BKN001,0.00,VWS V14.00,2013-11-30 16:56:00,
2013-11-30 10:01:00,11.0,7.6,30.90,SE,132,0.0,0.0,86,0.00,,BKN001,0.00,VWS V14.00,2013-11-30 17:01:00,
2013-11-30 10:06:00,10.0,6.7,30.89,SE,129,0.0,0.0,86,0.00,,BKN001,0.00,VWS V14.00,2013-11-30 17:06:00,
2013-11-30 10:11:00,10.3,7.2,30.89,SE,129,0.0,0.0,87,0.00,,BKN001,0.00,VWS V14.00,2013-11-30 17:11:00,
2013-11-30 10:16:00,12.8,10.2,30.89,SE,128,0.0,0.0,89,0.00,,BKN001,0.00,VWS V14.00,2013-11-30 17:16:00,
2013-11-30 10:21:00,13.5,10.6,30.88,SE,128,0.0,0.0,88,0.00,,BKN001,0.00,VWS V14.00,2013-11-30 17:21:00,
2013-11-30 10:26:00,12.6,9.2,30.87,SE,128,0.0,0.0,86,0.00,,BKN001,0.00,VWS V14.00,2013-11-30 17:26:00,
2013-11-30 10:31:00,12.0,8.6,30.87,ESE,115,0.0,0.0,86,0.00,,BKN001,0.00,VWS V14.00,2013-11-30 17:31:00,
2013-11-30 10:36:00,11.4,8.0,30.86,ESE,114,0.0,0.0,86,0.00,,BKN001,0.00,VWS V14.00,2013-11-30 17:36:00,
2013-11-30 10:41:00,11.4,8.0,30.86,East,94,0.0,0.0,86,0.00,,BKN001,0.00,VWS V14.00,2013-11-30 17:41:00,
2013-11-30 10:46:00,11.4,7.8,30.85,East,79,0.0,1.0,85,0.00,,BKN001,0.00,VWS V14.00,2013-11-30 17:46:00,
2013-11-30 10:51:00,12.6,9.5,30.85,East,79,0.0,1.0,87,0.00,,BKN001,0.00,VWS V14.00,2013-11-30 17:51:00,
2013-11-30 10:56:00,13.2,9.6,30.84,East,79,0.0,1.0,85,0.00,,BKN001,0.00,VWS V14.00,2013-11-30 17:56:00,
2013-11-30 11:01:00,14.6,11.7,30.84,East,79,0.0,0.0,88,0.00,,BKN001,0.00,VWS V14.00,2013-11-30 18:01:00,
2013-11-30 11:06:00,16.7,14.0,30.83,East,79,0.0,0.0,89,0.00,,BKN001,0.00,VWS V14.00,2013-11-30 18:06:00,
2013-11-30 11:11:00,18.1,14.9,30.82,East,81,0.0,0.0,87,0.00,,BKN001,0.00,VWS V14.00,2013-11-30 18:11:00,
2013-11-30 11:16:00,18.7,14.4,30.82,SSE,156,0.0,0.0,83,0.00,,BKN001,0.00,VWS V14.00,2013-11-30 18:16:00,
2013-11-30 11:21:00,17.9,13.1,30.81,SE,134,0.0,0.0,81,0.00,,BKN001,0.00,VWS V14.00,2013-11-30 18:21:00,
2013-11-30 11:26:00,17.4,12.3,30.81,ESE,111,0.0,0.0,80,0.00,,BKN001,0.00,VWS V14.00,2013-11-30 18:26:00,
2013-11-30 11:31:00,17.6,13.1,30.81,ESE,111,0.0,0.0,82,0.00,,BKN001,0.00,VWS V14.00,2013-11-30 18:31:00,
2013-11-30 11:36:00,18.7,14.1,30.80,ESE,112,0.0,0.0,82,0.00,,BKN001,0.00,VWS V14.00,2013-11-30 18:36:00,
2013-11-30 11:41:00,20.5,16.7,30.79,ESE,111,0.0,0.0,85,0.00,,BKN001,0.00,VWS V14.00,2013-11-30 18:41:00,
2013-11-30 11:46:00,19.7,14.0,30.79,NE,49,1.0,2.0,78,0.00,,BKN001,0.00,VWS V14.00,2013-11-30 18:46:00,
2013-11-30 11:51:00,21.0,16.7,30.78,NNE,25,0.0,2.0,83,0.00,,BKN001,0.00,VWS V14.00,2013-11-30 18:51:00,
2013-11-30 11:56:00,23.0,18.0,30.78,NE,39,0.0,2.0,81,0.00,,BKN001,0.00,VWS V14.00,2013-11-30 18:56:00,
2013-11-30 12:01:00,23.7,16.0,30.77,NE,39,0.0,0.0,72,0.00,,BKN001,0.00,VWS V14.00,2013-11-30 19:01:00,
2013-11-30 12:06:00,21.4,11.5,30.77,NE,48,1.0,2.0,65,0.00,,BKN001,0.00,VWS V14.00,2013-11-30 19:06:00,
2013-11-30 12:11:00,21.1,14.1,30.77,NE,39,0.0,2.0,74,0.00,,BKN001,0.00,VWS V14.00,2013-11-30 19:11:00,
2013-11-30 12:16:00,23.1,14.1,30.76,NNE,33,0.0,2.0,68,0.00,,BKN001,0.00,VWS V14.00,2013-11-30 19:16:00,
2013-11-30 12:21:00,25.3,15.6,30.75,NNE,33,0.0,2.0,66,0.00,,BKN001,0.00,VWS V14.00,2013-11-30 19:21:00,
2013-11-30 12:26:00,25.0,12.7,30.75,NE,47,0.0,3.0,59,0.00,,BKN001,0.00,VWS V14.00,2013-11-30 19:26:00,
2013-11-30 12:31:00,24.1,14.1,30.74,NE,35,0.0,1.0,65,0.00,,BKN001,0.00,VWS V14.00,2013-11-30 19:31:00,
2013-11-30 12:36:00,25.5,14.7,30.74,NE,49,0.0,1.0,63,0.00,,BKN001,0.00,VWS V14.00,2013-11-30 19:36:00,
2013-11-30 12:41:00,27.2,15.2,30.73,NNE,33,0.0,1.0,60,0.00,,BKN001,0.00,VWS V14.00,2013-11-30 19:41:00,
2013-11-30 12:46:00,28.0,14.8,30.73,NE,38,0.0,1.0,57,0.00,,BKN001,0.00,VWS V14.00,2013-11-30 19:46:00,
2013-11-30 12:51:00,27.0,13.0,30.72,NE,50,2.0,3.0,55,0.00,,BKN001,0.00,VWS V14.00,2013-11-30 19:51:00,
2013-11-30 12:56:00,23.9,12.4,30.72,NE,49,0.0,3.0,61,0.00,,BKN001,0.00,VWS V14.00,2013-11-30 19:56:00,
2013-11-30 13:00:00,24.6,13.8,30.71,NE,49,1.0,1.0,63,0.00,,BKN001,0.00,VWS V14.00,2013-11-30 20:00:00,
2013-11-30 13:05:00,24.8,14.4,30.71,NE,51,1.0,1.0,64,0.00,,BKN001,0.00,VWS V14.00,2013-11-30 20:05:00,
2013-11-30 13:10:00,24.9,14.1,30.70,NE,51,0.0,1.0,63,0.00,,BKN001,0.00,VWS V14.00,2013-11-30 20:10:00,
2013-11-30 13:15:00,25.8,15.0,30.69,ENE,61,0.0,1.0,63,0.00,,BKN001,0.00,VWS V14.00,2013-11-30 20:15:00,
2013-11-30 13:20:00,27.2,15.6,30.69,SW,226,0.0,1.0,61,0.00,,BKN001,0.00,VWS V14.00,2013-11-30 20:20:00,
2013-11-30 13:25:00,28.2,15.3,30.69,SSE,167,0.0,1.0,58,0.00,,BKN001,0.00,VWS V14.00,2013-11-30 20:25:00,
2013-11-30 13:30:00,28.9,15.6,30.68,SW,219,0.0,0.0,57,0.00,,BKN001,0.00,VWS V14.00,2013-11-30 20:30:00,
2013-11-30 13:35:00,27.8,15.4,30.68,South,186,0.0,0.0,59,0.00,,BKN001,0.00,VWS V14.00,2013-11-30 20:35:00,
2013-11-30 13:40:00,28.1,14.8,30.68,SW,228,2.0,3.0,57,0.00,,BKN001,0.00,VWS V14.00,2013-11-30 20:40:00,
2013-11-30 13:45:00,26.8,14.8,30.67,SSW,198,3.0,3.0,60,0.00,,BKN001,0.00,VWS V14.00,2013-11-30 20:45:00,
2013-11-30 13:50:00,26.2,14.6,30.67,SSW,207,2.0,3.0,61,0.00,,BKN001,0.00,VWS V14.00,2013-11-30 20:50:00,
2013-11-30 13:55:00,25.9,15.1,30.67,SW,217,1.0,3.0,63,0.00,,BKN001,0.00,VWS V14.00,2013-11-30 20:55:00,
2013-11-30 14:00:00,26.0,15.5,30.67,SSW,200,1.0,2.0,64,0.00,,BKN001,0.00,VWS V14.00,2013-11-30 21:00:00,
2013-11-30 14:05:00,26.9,16.0,30.67,WSW,240,2.0,2.0,63,0.00,,BKN001,0.00,VWS V14.00,2013-11-30 21:05:00,
2013-11-30 14:10:00,26.3,15.1,30.66,SW,215,1.0,2.0,62,0.00,,BKN001,0.00,VWS V14.00,2013-11-30 21:10:00,
2013-11-30 14:15:00,26.8,15.5,30.67,SW,219,1.0,2.0,62,0.00,,BKN001,0.00,VWS V14.00,2013-11-30 21:15:00,
2013-11-30 14:20:00,27.9,16.6,30.67,SW,223,0.0,2.0,62,0.00,,BKN001,0.00,VWS V14.00,2013-11-30 21:20:00,
2013-11-30 14:25:00,29.7,16.8,30.66,SW,222,0.0,2.0,58,0.00,,BKN001,0.00,VWS V14.00,2013-11-30 21:25:00,
2013-11-30 14:30:00,31.3,17.0,30.66,SW,222,0.0,1.0,55,0.00,,BKN001,0.00,VWS V14.00,2013-11-30 21:30:00,
2013-11-30 14:35:00,32.4,17.2,30.66,SW,222,0.0,1.0,53,0.00,,BKN001,0.00,VWS V14.00,2013-11-30 21:35:00,
2013-11-30 14:40:00,31.3,15.3,30.65,ESE,103,0.0,1.0,51,0.00,,BKN001,0.00,VWS V14.00,2013-11-30 21:40:00,
2013-11-30 14:45:00,28.9,15.6,30.65,ESE,103,0.0,1.0,57,0.00,,BKN001,0.00,VWS V14.00,2013-11-30 21:45:00,
2013-11-30 14:50:00,29.8,16.4,30.65,ESE,103,0.0,1.0,57,0.00,,BKN001,0.00,VWS V14.00,2013-11-30 21:50:00,
2013-11-30 14:55:00,29.1,16.2,30.65,East,101,0.0,1.0,58,0.00,,BKN001,0.00,VWS V14.00,2013-11-30 21:55:00,
2013-11-30 15:00:00,30.4,16.6,30.65,East,101,0.0,0.0,56,0.00,,BKN001,0.00,VWS V14.00,2013-11-30 22:00:00,
2013-11-30 15:05:00,32.3,17.1,30.65,East,101,0.0,0.0,53,0.00,,BKN001,0.00,VWS V14.00,2013-11-30 22:05:00,
2013-11-30 15:10:00,31.5,15.0,30.65,East,101,0.0,0.0,50,0.00,,BKN001,0.00,VWS V14.00,2013-11-30 22:10:00,
2013-11-30 15:15:00,32.3,16.7,30.65,SSE,153,0.0,0.0,52,0.00,,BKN001,0.00,VWS V14.00,2013-11-30 22:15:00,
2013-11-30 15:20:00,32.5,15.9,30.66,SSE,153,0.0,0.0,50,0.00,,BKN001,0.00,VWS V14.00,2013-11-30 22:20:00,
2013-11-30 15:25:00,30.8,15.3,30.66,East,97,4.0,4.0,52,0.00,,BKN001,0.00,VWS V14.00,2013-11-30 22:25:00,
2013-11-30 15:30:00,27.5,15.1,30.66,SE,127,2.0,2.0,59,0.00,,BKN001,0.00,VWS V14.00,2013-11-30 22:30:00,
2013-11-30 15:35:00,27.2,15.2,30.66,SSW,204,0.0,2.0,60,0.00,,BKN001,0.00,VWS V14.00,2013-11-30 22:35:00,
2013-11-30 15:40:00,27.8,15.4,30.66,SW,231,1.0,2.0,59,0.00,,BKN001,0.00,VWS V14.00,2013-11-30 22:40:00,
2013-11-30 15:45:00,28.2,15.7,30.66,WSW,255,0.0,2.0,59,0.00,,BKN001,0.00,VWS V14.00,2013-11-30 22:45:00,
2013-11-30 15:50:00,26.8,14.4,30.66,SE,136,2.0,3.0,59,0.00,,BKN001,0.00,VWS V14.00,2013-11-30 22:50:00,
2013-11-30 15:55:00,25.2,14.0,30.67,SE,138,1.0,3.0,62,0.00,,BKN001,0.00,VWS V14.00,2013-11-30 22:55:00,
2013-11-30 16:00:00,24.3,14.2,30.67,SW,232,1.0,1.0,65,0.00,,BKN001,0.00,VWS V14.00,2013-11-30 23:00:00,
2013-11-30 16:05:00,22.8,13.5,30.67,SW,221,0.0,1.0,67,0.00,,BKN001,0.00,VWS V14.00,2013-11-30 23:05:00,
2013-11-30 16:10:00,22.0,13.7,30.67,SE,125,1.0,1.0,70,0.00,,BKN001,0.00,VWS V14.00,2013-11-30 23:10:00,
2013-11-30 16:15:00,22.1,14.1,30.67,East,93,1.0,2.0,71,0.00,,BKN001,0.00,VWS V14.00,2013-11-30 23:15:00,
2013-11-30 16:20:00,22.3,14.3,30.67,ESE,102,0.0,2.0,71,0.00,,BKN001,0.00,VWS V14.00,2013-11-30 23:20:00,
2013-11-30 16:25:00,21.6,13.0,30.67,East,101,0.0,2.0,69,0.00,,BKN001,0.00,VWS V14.00,2013-11-30 23:25:00,
2013-11-30 16:30:00,20.4,12.5,30.67,SW,228,0.0,0.0,71,0.00,,BKN001,0.00,VWS V14.00,2013-11-30 23:30:00,
2013-11-30 16:35:00,19.9,13.3,30.67,SSW,212,0.0,0.0,75,0.00,,BKN001,0.00,VWS V14.00,2013-11-30 23:35:00,
2013-11-30 16:40:00,20.5,13.9,30.68,ESE,120,4.0,4.0,75,0.00,,BKN001,0.00,VWS V14.00,2013-11-30 23:40:00,
2013-11-30 16:45:00,19.4,11.9,30.68,West,261,0.0,4.0,72,0.00,,BKN001,0.00,VWS V14.00,2013-11-30 23:45:00,
2013-11-30 16:50:00,18.7,11.5,30.68,South,176,0.0,4.0,73,0.00,,BKN001,0.00,VWS V14.00,2013-11-30 23:50:00,
2013-11-30 16:55:00,17.7,11.7,30.68,SSE,150,1.0,4.0,77,0.00,,BKN001,0.00,VWS V14.00,2013-11-30 23:55:00,
2013-11-30 17:00:00,18.1,12.7,30.68,SE,139,0.0,2.0,79,0.00,,BKN001,0.00,VWS V14.00,2013-12-01 00:00:00,
2013-11-30 17:05:00,17.4,10.2,30.68,SSW,201,0.0,2.0,73,0.00,,BKN001,0.00,VWS V14.00,2013-12-01 00:05:00,
2013-11-30 17:10:00,16.6,11.2,30.68,ESE,102,0.0,2.0,79,0.00,,BKN001,0.00,VWS V14.00,2013-12-01 00:10:00,
2013-11-30 17:15:00,16.0,10.6,30.69,SW,215,0.0,2.0,79,0.00,,BKN001,0.00,VWS V14.00,2013-12-01 00:15:00,
2013-11-30 17:20:00,15.6,10.3,30.69,SSW,212,0.0,2.0,79,0.00,,BKN001,0.00,VWS V14.00,2013-12-01 00:20:00,
2013-11-30 17:25:00,14.7,9.7,30.70,SSW,212,0.0,2.0,80,0.00,,BKN001,0.00,VWS V14.00,2013-12-01 00:25:00,
2013-11-30 17:30:00,14.3,10.1,30.70,ENE,76,1.0,1.0,83,0.00,,BKN001,0.00,VWS V14.00,2013-12-01 00:30:00,
2013-11-30 17:35:00,15.2,11.5,30.71,NE,44,0.0,4.0,85,0.00,,BKN001,0.00,VWS V14.00,2013-12-01 00:35:00,
2013-11-30 17:40:00,15.2,10.7,30.71,NNW,333,1.0,4.0,82,0.00,,BKN001,0.00,VWS V14.00,2013-12-01 00:40:00,
2013-11-30 17:45:00,14.0,9.8,30.71,WSW,252,1.0,4.0,83,0.00,,BKN001,0.00,VWS V14.00,2013-12-01 00:45:00,
2013-11-30 17:50:00,14.1,10.4,30.71,WSW,252,0.0,4.0,85,0.00,,BKN001,0.00,VWS V14.00,2013-12-01 00:50:00,
2013-11-30 17:55:00,14.4,11.0,30.71,SE,128,0.0,4.0,86,0.00,,BKN001,0.00,VWS V14.00,2013-12-01 00:55:00,
2013-11-30 18:00:00,14.8,11.6,30.72,ESE,102,3.0,3.0,87,0.00,,BKN001,0.00,VWS V14.00,2013-12-01 01:00:00,
2013-11-30 18:05:00,16.5,13.6,30.72,SE,145,2.0,3.0,88,0.00,,BKN001,0.00,VWS V14.00,2013-12-01 01:05:00,
2013-11-30 18:10:00,15.6,11.1,30.73,SSW,198,2.0,3.0,82,0.00,,BKN001,0.00,VWS V14.00,2013-12-01 01:10:00,
2013-11-30 18:15:00,14.2,10.0,30.73,South,181,5.0,7.0,83,0.00,,BKN001,0.00,VWS V14.00,2013-12-01 01:15:00,
2013-11-30 18:20:00,14.0,10.3,30.73,South,181,5.0,7.0,85,0.00,,BKN001,0.00,VWS V14.00,2013-12-01 01:20:00,
2013-11-30 18:25:00,13.6,8.9,30.74,South,172,2.0,7.0,81,0.00,,BKN001,0.00,VWS V14.00,2013-12-01 01:25:00,
2013-11-30 18:30:00,12.8,7.8,30.74,West,269,0.0,0.0,80,0.00,,BKN001,0.00,VWS V14.00,2013-12-01 01:30:00,
2013-11-30 18:35:00,11.3,6.3,30.74,West,269,0.0,1.0,80,0.00,,BKN001,0.00,VWS V14.00,2013-12-01 01:35:00,
2013-11-30 18:40:00,10.6,6.5,30.75,SW,235,3.0,3.0,83,0.00,,BKN001,0.00,VWS V14.00,2013-12-01 01:40:00,
2013-11-30 18:43:00,10.4,6.5,30.75,SW,218,0.0,3.0,84,0.00,,BKN001,0.00,VWS V14.00,2013-12-01 01:43:00,
2013-11-30 18:48:00,9.5,5.4,30.75,SW,215,0.0,3.0,83,0.00,,BKN001,0.00,VWS V14.00,2013-12-01 01:48:00,
2013-11-30 18:53:00,9.0,5.4,30.75,SE,142,3.0,4.0,85,0.00,,BKN001,0.00,VWS V14.00,2013-12-01 01:53:00,
2013-11-30 18:58:00,9.7,6.6,30.75,WSW,240,0.0,4.0,87,0.00,,BKN001,0.00,VWS V14.00,2013-12-01 01:58:00,
2013-11-30 19:03:00,8.9,5.3,30.76,SW,229,0.0,0.0,85,0.00,,BKN001,0.00,VWS V14.00,2013-12-01 02:03:00,
2013-11-30 19:08:00,8.3,5.0,30.77,SW,221,2.0,2.0,86,0.00,,BKN001,0.00,VWS V14.00,2013-12-01 02:08:00,
2013-11-30 19:13:00,8.4,5.3,30.77,WSW,242,0.0,3.0,87,0.00,,BKN001,0.00,VWS V14.00,2013-12-01 02:13:00,
2013-11-30 19:18:00,8.0,4.7,30.77,South,188,1.0,3.0,86,0.00,,BKN001,0.00,VWS V14.00,2013-12-01 02:18:00,
2013-11-30 19:23:00,8.6,6.0,30.77,South,176,3.0,3.0,89,0.00,,BKN001,0.00,VWS V14.00,2013-12-01 02:23:00,
2013-11-30 19:28:00,9.9,7.8,30.78,SW,222,2.0,3.0,91,0.00,,BKN001,0.00,VWS V14.00,2013-12-01 02:28:00,
2013-11-30 19:33:00,8.7,5.1,30.78,SW,226,2.0,3.0,85,0.00,,BKN001,0.00,VWS V14.00,2013-12-01 02:33:00,
2013-11-30 19:38:00,7.3,3.8,30.78,SSW,193,0.0,3.0,85,0.00,,BKN001,0.00,VWS V14.00,2013-12-01 02:38:00,
2013-11-30 19:43:00,7.1,4.1,30.78,SSE,161,0.0,3.0,87,0.00,,BKN001,0.00,VWS V14.00,2013-12-01 02:43:00,
2013-11-30 19:48:00,6.4,3.1,30.78,SW,235,0.0,3.0,86,0.00,,BKN001,0.00,VWS V14.00,2013-12-01 02:48:00,
2013-11-30 19:53:00,5.8,2.5,30.78,SW,219,2.0,3.0,86,0.00,,BKN001,0.00,VWS V14.00,2013-12-01 02:53:00,
2013-11-30 19:58:00,5.5,2.7,30.78,SW,226,1.0,3.0,88,0.00,,BKN001,0.00,VWS V14.00,2013-12-01 02:58:00,
2013-11-30 20:03:00,5.0,2.0,30.78,SW,224,0.0,0.0,87,0.00,,BKN001,0.00,VWS V14.00,2013-12-01 03:03:00,
2013-11-30 20:08:00,6.0,3.7,30.79,SSW,203,5.0,6.0,90,0.00,,BKN001,0.00,VWS V14.00,2013-12-01 03:08:00,
2013-11-30 20:13:00,6.5,4.2,30.79,South,183,3.0,6.0,90,0.00,,BKN001,0.00,VWS V14.00,2013-12-01 03:13:00,
2013-11-30 20:18:00,6.0,3.2,30.79,SW,218,1.0,6.0,88,0.00,,BKN001,0.00,VWS V14.00,2013-12-01 03:18:00,
2013-11-30 20:23:00,4.9,1.6,30.79,SSE,162,2.0,6.0,86,0.00,,BKN001,0.00,VWS V14.00,2013-12-01 03:23:00,
2013-11-30 20:28:00,6.1,3.8,30.79,SSE,152,4.0,6.0,90,0.00,,BKN001,0.00,VWS V14.00,2013-12-01 03:28:00,
2013-11-30 20:33:00,6.6,3.8,30.79,SW,221,2.0,3.0,88,0.00,,BKN001,0.00,VWS V14.00,2013-12-01 03:33:00,
2013-11-30 20:38:00,5.0,1.7,30.79,SSW,204,0.0,3.0,86,0.00,,BKN001,0.00,VWS V14.00,2013-12-01 03:38:00,
2013-11-30 20:43:00,5.7,3.4,30.80,South,177,4.0,5.0,90,0.00,,BKN001,0.00,VWS V14.00,2013-12-01 03:43:00,
2013-11-30 20:48:00,6.4,4.1,30.80,WSW,238,3.0,5.0,90,0.00,,BKN001,0.00,VWS V14.00,2013-12-01 03:48:00,
2013-11-30 20:53:00,5.2,1.9,30.80,SW,232,4.0,5.0,86,0.00,,BKN001,0.00,VWS V14.00,2013-12-01 03:53:00,
2013-11-30 20:58:00,5.2,2.7,30.80,SW,218,2.0,5.0,89,0.00,,BKN001,0.00,VWS V14.00,2013-12-01 03:58:00,
2013-11-30 21:03:00,5.8,3.5,30.80,SW,221,1.0,3.0,90,0.00,,BKN001,0.00,VWS V14.00,2013-12-01 04:03:00,
2013-11-30 21:08:00,5.4,2.6,30.80,SW,225,0.0,3.0,88,0.00,,BKN001,0.00,VWS V14.00,2013-12-01 04:08:00,
2013-11-30 21:13:00,5.3,2.5,30.80,ESE,107,1.0,3.0,88,0.00,,BKN001,0.00,VWS V14.00,2013-12-01 04:13:00,
2013-11-30 21:18:00,6.0,3.5,30.80,SSW,206,3.0,4.0,89,0.00,,BKN001,0.00,VWS V14.00,2013-12-01 04:18:00,
2013-11-30 21:23:00,6.8,4.5,30.81,SW,232,2.0,5.0,90,0.00,,BKN001,0.00,VWS V14.00,2013-12-01 04:23:00,
2013-11-30 21:28:00,6.6,3.8,30.81,SW,218,0.0,5.0,88,0.00,,BKN001,0.00,VWS V14.00,2013-12-01 04:28:00,
2013-11-30 21:33:00,6.5,3.7,30.81,SW,221,0.0,0.0,88,0.00,,BKN001,0.00,VWS V14.00,2013-12-01 04:33:00,
2013-11-30 21:38:00,6.5,3.7,30.81,SW,224,1.0,2.0,88,0.00,,BKN001,0.00,VWS V14.00,2013-12-01 04:38:00,
2013-11-30 21:43:00,7.0,4.7,30.81,SSE,155,1.0,4.0,90,0.00,,BKN001,0.00,VWS V14.00,2013-12-01 04:43:00,
2013-11-30 21:48:00,6.6,3.8,30.81,ESE,114,0.0,4.0,88,0.00,,BKN001,0.00,VWS V14.00,2013-12-01 04:48:00,
2013-11-30 21:53:00,5.9,2.9,30.82,SSE,160,0.0,4.0,87,0.00,,BKN001,0.00,VWS V14.00,2013-12-01 04:53:00,
2013-11-30 21:58:00,5.5,2.5,30.82,SE,146,2.0,4.0,87,0.00,,BKN001,0.00,VWS V14.00,2013-12-01 04:58:00,
2013-11-30 22:01:00,5.6,2.8,30.82,SSE,153,2.0,2.0,88,0.00,,BKN001,0.00,VWS V14.00,2013-12-01 05:01:00,
2013-11-30 22:06:00,6.2,3.7,30.82,West,264,0.0,2.0,89,0.00,,BKN001,0.00,VWS V14.00,2013-12-01 05:06:00,
2013-11-30 22:11:00,5.8,2.8,30.82,West,264,0.0,2.0,87,0.00,,BKN001,0.00,VWS V14.00,2013-12-01 05:11:00,
2013-11-30 22:16:00,5.7,2.9,30.82,West,265,0.0,2.0,88,0.00,,BKN001,0.00,VWS V14.00,2013-12-01 05:16:00,
2013-11-30 22:21:00,5.9,3.1,30.82,ENE,76,0.0,2.0,88,0.00,,BKN001,0.00,VWS V14.00,2013-12-01 05:21:00,
2013-11-30 22:26:00,5.2,2.2,30.82,WSW,240,1.0,2.0,87,0.00,,BKN001,0.00,VWS V14.00,2013-12-01 05:26:00,
2013-11-30 22:31:00,5.1,2.3,30.82,SSE,160,2.0,2.0,88,0.00,,BKN001,0.00,VWS V14.00,2013-12-01 05:31:00,
2013-11-30 22:36:00,6.8,4.7,30.82,SE,134,3.0,3.0,91,0.00,,BKN001,0.00,VWS V14.00,2013-12-01 05:36:00,
2013-11-30 22:41:00,7.2,4.7,30.82,SSW,212,1.0,3.0,89,0.00,,BKN001,0.00,VWS V14.00,2013-12-01 05:41:00,
2013-11-30 22:46:00,6.1,2.8,30.82,SW,226,0.0,3.0,86,0.00,,BKN001,0.00,VWS V14.00,2013-12-01 05:46:00,
2013-11-30 22:51:00,4.1,0.6,30.83,WSW,256,0.0,3.0,85,0.00,,BKN001,0.00,VWS V14.00,2013-12-01 05:51:00,
2013-11-30 22:56:00,3.0,-0.2,30.83,SW,232,0.0,3.0,86,0.00,,BKN001,0.00,VWS V14.00,2013-12-01 05:56:00,
2013-11-30 23:01:00,3.3,0.6,30.83,SSW,209,4.0,4.0,88,0.00,,BKN001,0.00,VWS V14.00,2013-12-01 06:01:00,
2013-11-30 23:06:00,4.3,1.5,30.83,ESE,108,0.0,4.0,88,0.00,,BKN001,0.00,VWS V14.00,2013-12-01 06:06:00,
2013-11-30 23:11:00,4.1,1.3,30.83,SSW,195,0.0,4.0,88,0.00,,BKN001,0.00,VWS V14.00,2013-12-01 06:11:00,
2013-11-30 23:16:00,4.5,1.7,30.83,SSW,203,1.0,4.0,88,0.00,,BKN001,0.00,VWS V14.00,2013-12-01 06:16:00,
2013-11-30 23:21:00,4.2,1.2,30.83,WSW,238,0.0,4.0,87,0.00,,BKN001,0.00,VWS V14.00,2013-12-01 06:21:00,
2013-11-30 23:26:00,4.1,1.3,30.83,WSW,237,2.0,4.0,88,0.00,,BKN001,0.00,VWS V14.00,2013-12-01 06:26:00,
2013-11-30 23:31:00,4.6,2.1,30.83,South,181,0.0,2.0,89,0.00,,BKN001,0.00,VWS V14.00,2013-12-01 06:31:00,
2013-11-30 23:36:00,4.5,1.7,30.83,WSW,249,4.0,4.0,88,0.00,,BKN001,0.00,VWS V14.00,2013-12-01 06:36:00,
2013-11-30 23:41:00,4.4,1.6,30.84,WSW,242,2.0,4.0,88,0.00,,BKN001,0.00,VWS V14.00,2013-12-01 06:41:00,
2013-11-30 23:46:00,4.7,1.9,30.84,South,176,0.0,4.0,88,0.00,,BKN001,0.00,VWS V14.00,2013-12-01 06:46:00,
2013-11-30 23:51:00,4.8,2.0,30.84,WSW,242,0.0,4.0,88,0.00,,BKN001,0.00,VWS V14.00,2013-12-01 06:51:00,
2013-11-30 23:56:00,4.3,1.3,30.84,SSE,155,0.0,4.0,87,0.00,,BKN001,0.00,VWS V14.00,2013-12-01 06:56:00,